THOR ABLESTAR DEB, 2432

Orbit data source: Space-Track

THOR ABLESTAR DEB, 2432 is space debris in LEO originally from a launch on Thu, 05 Dec 1963 UTC launched from the Air Force Western Test Range (AFWTR). Debris objects in space refer to the collection of defunct objects orbiting the Earth. Examples of debris include non-operational satellites, rocket bodies, and fragments generated from explosions, collisions, or faulty payload assembly.

Loading next visibility...
Identifier
2432, 1963-049G
Orbit
LEO
Country
Flag of USUS
Related business
Manufacturer
Unknown
Mission
Spacecraft
Bus & Motor
Unknown
Mass
Unknown
Launch date (UTC)
1963-12-05 (62 years ago)
Launch vehicle
Unknown
Launch site
Air Force Western Test Range (AFWTR)
Object type
Payload
Rocket body
Debris
Shape & HBR
Unknown
Radar Cross Section
Medium (>0.1 m² and <1 m²)

Expand to show TLE details & history
Last TLE update: 1 day ago

TLE from 1 day ago
0 THOR ABLESTAR DEB
1 02432U 63049G   25242.06139528  .00000089  00000-0  12909-3 0  9993
2 02432  89.9129  73.0266 0034085 356.6279 119.7854 13.48199309 33472
Epoch: 2025-08-30T01:28Z
TLE epoch observation values (Epoch: 2025-08-30T01:28:24.552Z)
Latitude
63.33293°
Longitude
-107.74934°
Altitude
1,102.561 km
Speed
7.301 km/s
True Right ascension
16h 51m 24s
True Declination
63° 12' 04"
Sunlit
Object was in daylight at epoch
Visualization orbit readout
Latitude
Unknown
Longitude
Unknown
Altitude
Unknown
Speed
Unknown
Apparent Right ascension
Unknown
Apparent Declination
Unknown
Sunlit
N/A
Visualization observer readout
Local Sidereal Time
18:06:49
Azimuth
Unknown
Elevation
Unknown
Doppler factor
Unknown
Orbital elements
Apogee altitude
1,101.351 km
Perigee altitude
1,050.536 km
Semi-major axis
7,454.08 km
Eccentricity
0.00341
Inclination
89.9129°
RAAN
73.0266°
Arg. of periapsis
356.6279°
True anomaly
120.12367°
Mean anomaly
119.7854°
Eccentric anomaly
119.95461°
Mean motion
3.3725 °/min
Orbital period
106.75 mins
BSTAR
0.00012909
Loading maneuver chart data...
Computing Atmospheric mass density...
Loading historical data...
Loading historical data...
Loading historical data...
Loading historical data...
Loading historical data...
Loading historical data...
Loading historical data...

Documentation

Showing up to 5 results
|